Theta_e
308 312 314 316 318 321 324 328 328 330 332 335 336 337 337 335 334 334 334 333 334 335 336 336 336 337 333 330 330 329 334 336 335 335 336 336 336 335 332 334 335 335 335 334 334 333 333 334 332 330 329 329 330 331 330 330 330 330 329 328 328 329 329 329 330 329 329 329 329 329 329 328 326 326 326 325 324 325 327 328 329 329 330 329 329
306 310 312 314 318 321 324 327 327 329 331 334 336 337 337 336 336 335 335 334 334 335 335 335 337 337 333 329 328 329 333 335 336 336 336 336 336 336 333 332 334 335 335 334 334 333 333 333 332 331 332 331 331 330 329 329 329 329 328 327 326 327 326 326 330 330 329 327 328 329 329 328 326 325 325 324 324 326 326 326 328 328 330 329 328
305 308 309 312 317 320 324 324 325 328 330 332 335 337 337 337 337 336 336 335 334 335 334 334 336 337 334 329 327 327 329 331 334 336 335 336 336 336 336 332 332 333 334 334 334 333 333 333 332 332 332 331 330 329 329 328 328 329 328 327 325 324 325 327 329 328 327 326 328 327 327 328 326 324 324 325 325 324 325 325 326 326 327 328 327
305 306 308 311 315 319 322 321 323 326 329 331 333 336 336 336 337 337 336 336 334 334 334 334 335 337 336 332 330 327 327 328 331 335 335 335 335 336 337 333 332 330 330 334 334 333 333 333 332 332 332 331 330 329 329 328 328 329 328 326 324 323 325 326 327 325 325 326 325 323 325 326 326 325 324 326 326 325 326 327 327 327 327 327 327
304 306 307 310 314 317 319 319 321 325 327 330 332 334 335 336 336 337 337 337 335 334 334 334 335 337 337 335 333 330 330 330 331 335 335 335 336 337 336 334 334 330 324 327 332 333 332 332 332 332 331 331 330 329 328 328 328 329 328 326 324 323 324 324 325 325 325 325 324 323 324 325 325 325 325 325 325 324 324 325 327 327 328 327 326
303 305 307 309 313 316 317 317 319 322 325 328 331 332 334 335 335 336 338 337 336 335 334 334 336 337 337 336 335 333 333 334 335 336 336 336 336 337 336 334 334 333 327 323 329 332 332 331 331 331 331 330 329 329 328 328 328 328 328 325 322 322 322 322 322 323 323 323 325 326 326 325 323 324 325 325 323 322 322 324 325 326 327 326 326
303 305 307 309 312 315 315 315 317 320 323 326 328 330 332 333 334 335 336 337 337 336 335 335 336 337 337 337 336 335 335 335 336 336 336 337 337 337 336 335 333 333 333 330 328 330 332 331 330 330 330 330 329 328 327 327 327 327 327 323 321 322 321 322 321 322 322 324 326 326 327 326 325 323 323 323 322 322 322 322 322 324 325 324 323
303 304 307 309 310 313 313 313 315 318 321 324 326 328 330 331 333 335 335 336 337 337 337 336 336 336 336 336 336 336 334 334 336 337 336 337 337 336 336 335 334 333 334 333 329 326 328 329 327 328 329 329 328 328 328 327 326 327 325 321 321 322 321 322 323 322 323 325 325 324 325 325 325 323 323 324 323 323 323 322 321 322 322 321 321
302 303 305 308 310 311 311 311 314 316 318 321 323 326 328 329 331 333 335 335 336 337 336 336 337 337 336 335 335 336 336 335 336 337 337 337 336 336 336 335 334 334 334 333 330 324 321 325 326 327 329 328 327 327 327 327 326 325 322 320 322 322 321 323 322 322 323 324 323 323 324 324 323 322 324 324 324 324 324 324 323 322 322 322 323
302 303 304 306 308 310 310 310 312 315 316 318 321 323 326 328 329 331 333 334 335 335 336 336 337 337 337 336 336 336 336 336 337 336 336 336 335 336 336 335 334 334 335 333 332 326 318 321 327 328 328 328 327 327 327 327 325 322 320 320 322 322 321 322 322 323 324 323 323 324 324 324 324 325 326 325 325 325 324 324 324 324 324 325 326
302 303 304 306 307 308 310 311 311 313 315 317 319 321 324 326 328 329 330 332 334 334 335 336 337 337 337 336 336 336 335 335 336 334 334 335 334 335 336 335 334 334 335 334 333 329 321 321 326 328 328 327 327 327 326 326 324 320 319 320 321 322 321 321 323 325 325 323 323 323 324 325 326 328 327 326 326 325 324 324 324 325 325 326 328
301 302 304 306 307 308 310 311 311 312 313 315 318 320 322 323 326 327 329 330 332 333 334 335 336 337 337 336 336 336 335 335 335 333 332 334 333 333 335 336 334 334 335 335 333 330 326 324 324 325 327 326 325 325 324 325 323 320 319 320 321 323 322 321 323 325 324 323 323 322 324 325 326 327 326 327 327 326 325 325 325 326 327 327 328
299 301 304 305 306 308 309 310 311 312 313 314 316 319 320 321 323 326 327 328 330 332 333 335 335 336 337 336 336 336 334 334 334 333 332 331 331 331 333 335 335 334 335 335 334 332 329 326 323 322 324 324 323 323 323 323 322 320 320 321 321 322 323 322 324 324 323 323 322 322 323 323 325 326 326 327 328 327 327 326 327 327 328 328 327
299 302 304 304 306 307 308 309 310 311 313 313 315 317 319 319 321 323 325 326 328 330 331 334 334 335 336 336 336 336 335 334 333 333 332 330 328 329 330 333 334 334 334 334 333 333 330 326 322 320 319 319 323 324 324 323 320 319 321 321 321 322 323 323 324 323 323 323 322 322 323 324 324 324 325 326 327 328 327 327 327 327 328 327 327
299 302 303 303 305 306 307 308 309 310 311 313 314 315 317 318 319 321 322 324 326 328 330 332 334 334 335 335 335 335 335 334 334 333 333 330 326 327 328 331 333 333 334 334 333 333 331 326 321 320 318 317 321 324 324 324 320 319 321 321 322 321 322 323 323 323 323 323 322 323 324 325 325 325 326 327 327 327 327 327 327 327 327 327 327
298 300 302 302 304 305 306 307 308 309 310 312 313 314 316 317 318 319 320 322 324 326 329 331 332 334 335 335 335 335 335 335 334 333 332 330 327 327 327 328 332 333 334 334 333 333 331 326 323 323 323 321 322 323 324 324 321 320 320 321 322 322 321 322 323 323 323 323 323 324 325 326 325 326 327 327 327 327 326 326 326 327 327 327 326
298 299 299 301 302 304 304 306 307 309 310 311 312 313 314 315 316 317 318 321 322 324 327 330 331 332 334 334 335 335 334 334 333 332 331 330 329 328 328 327 330 332 334 334 333 333 331 327 326 327 328 327 325 324 324 323 322 321 321 321 322 322 322 322 323 323 322 323 323 324 326 326 325 326 326 327 327 326 326 326 326 326 325 325 324
297 298 299 300 301 302 302 304 305 307 309 310 312 312 313 314 315 316 317 319 321 322 325 327 330 331 332 334 334 335 334 333 333 332 330 330 329 328 328 328 329 330 332 333 332 333 332 329 329 329 329 329 327 325 323 322 322 321 321 321 321 322 322 322 323 322 322 323 323 325 327 326 326 326 326 326 326 326 326 326 325 325 323 323 323
296 298 299 299 300 300 300 302 303 304 307 308 309 310 311 312 314 315 316 317 318 321 323 325 328 330 332 333 333 334 334 333 333 333 330 329 329 328 326 326 328 329 331 332 332 332 332 330 330 330 330 329 328 325 321 320 319 320 320 320 321 321 322 322 323 323 322 323 324 326 325 325 326 326 326 325 325 326 326 325 324 323 322 322 321
296 297 298 298 299 299 300 300 301 301 303 305 305 307 308 309 312 314 314 316 317 319 322 324 327 329 331 333 332 331 332 331 331 332 331 329 328 328 325 325 327 328 330 332 332 332 331 331 330 330 330 329 328 324 319 319 319 319 318 319 321 321 322 323 324 323 322 323 324 325 324 324 324 324 324 324 324 324 324 324 323 321 321 321 321
296 297 298 298 299 299 299 299 300 300 301 302 303 305 305 305 309 311 313 314 316 317 319 322 324 327 330 332 333 331 330 330 329 329 331 331 330 328 326 325 327 327 329 331 332 332 331 331 331 330 329 330 329 323 319 320 319 318 317 319 321 321 322 323 323 323 322 322 322 323 322 321 323 323 322 322 321 321 322 322 321 320 321 322 322
295 296 297 298 298 298 298 299 299 299 300 302 302 302 303 303 304 308 311 312 314 316 317 319 321 324 328 330 331 331 331 330 328 328 330 331 330 329 326 325 327 329 329 330 332 332 332 331 331 331 329 330 328 322 320 320 318 318 317 319 321 321 321 322 322 322 322 322 322 322 320 318 322 323 321 321 320 320 321 321 321 322 322 323 323
295 295 297 298 298 298 298 298 299 299 300 301 302 301 302 303 302 304 307 308 311 314 315 317 319 322 325 328 329 329 329 328 326 326 327 327 328 329 328 327 328 329 330 330 330 331 332 331 331 331 329 330 327 321 320 319 318 319 319 320 321 320 320 321 321 321 321 321 321 320 318 317 321 322 320 320 321 322 322 322 323 323 324 324 324
294 294 296 297 297 298 298 298 299 300 300 300 301 301 301 302 301 302 303 304 306 310 314 315 316 318 322 326 328 328 327 325 324 323 323 324 326 327 328 330 330 329 330 331 331 331 332 332 331 330 330 329 325 320 319 318 319 320 320 321 320 318 319 320 320 320 320 320 319 318 317 316 319 321 321 322 322 324 323 322 323 324 324 324 324
294 294 295 296 296 297 297 298 299 299 299 300 301 301 301 301 301 301 301 302 304 306 310 313 315 316 319 323 327 329 327 325 324 321 320 323 325 325 327 329 331 330 331 332 332 332 332 332 331 330 329 328 323 320 319 320 321 320 321 321 319 318 319 319 319 320 320 320 318 317 317 317 319 320 321 323 324 324 324 323 324 324 324 324 324
293 294 294 295 296 296 296 298 299 299 299 299 300 300 300 300 300 301 301 302 302 303 306 310 313 314 316 320 324 328 328 326 325 322 320 321 323 326 327 328 330 331 331 331 332 332 332 331 331 330 328 327 323 320 321 321 321 321 320 319 319 320 320 319 319 319 320 320 319 318 319 319 319 320 322 324 324 324 324 324 325 325 325 325 325
293 293 294 295 296 295 296 297 298 298 298 298 300 300 299 299 299 300 301 301 301 301 303 306 310 312 314 318 321 325 328 328 326 323 321 320 322 326 327 328 329 330 330 331 331 331 331 331 331 330 328 326 323 321 321 321 320 319 319 319 321 321 320 320 319 319 320 320 319 319 320 320 320 322 323 324 324 324 325 325 325 325 325 325 325
292 293 293 295 295 295 296 297 297 298 298 298 299 299 299 299 299 299 299 299 300 300 301 303 307 309 312 316 318 322 327 329 328 326 325 323 324 327 328 328 328 329 329 330 331 331 330 331 331 330 327 325 322 321 322 320 318 317 319 320 321 321 320 320 319 319 320 320 320 320 320 320 321 323 324 324 325 325 325 325 325 324 324 324 324
292 292 293 294 295 295 296 296 296 297 298 297 299 299 298 298 298 298 298 298 299 299 301 302 305 307 311 314 317 321 326 330 329 328 328 326 326 327 327 328 328 328 329 329 330 330 330 329 329 329 327 324 322 322 322 321 318 318 320 322 321 320 320 319 319 319 319 320 321 320 321 321 321 322 323 323 324 324 323 323 323 322 323 323 323
292 292 293 294 294 294 295 296 295 296 297 297 298 298 298 297 297 298 298 297 298 299 300 301 303 306 309 313 317 321 325 329 329 327 327 327 327 327 327 328 328 329 329 329 330 329 329 326 326 328 326 322 322 323 323 322 321 320 321 321 320 320 319 318 318 318 317 319 319 320 321 321 320 321 321 320 321 321 321 321 321 321 321 321 321
291 292 292 293 293 293 294 295 294 295 296 297 297 297 297 297 297 297 297 297 297 298 299 300 303 306 309 312 316 320 323 327 329 327 324 325 327 327 326 327 328 329 329 329 330 330 328 324 324 328 324 322 323 324 324 323 323 322 321 321 319 319 318 318 317 316 316 317 318 318 318 318 318 319 317 317 318 318 318 319 319 319 319 319 319
291 291 291 292 292 292 293 294 293 293 295 296 296 297 297 296 297 296 296 296 296 297 298 299 302 306 308 312 316 318 321 325 327 323 321 323 325 326 326 326 328 329 329 330 330 330 327 323 325 326 323 322 324 324 324 323 321 320 319 318 317 317 316 316 315 314 314 314 316 316 316 316 315 316 315 314 314 315 316 317 317 317 317 317 317
291 291 291 292 292 291 292 293 292 292 293 296 296 296 296 296 296 296 296 295 295 296 297 298 301 304 307 312 314 315 320 323 322 319 320 325 325 325 326 326 327 328 328 329 329 329 326 323 325 326 323 323 322 320 321 319 317 317 316 314 313 313 312 313 313 312 310 310 312 313 313 313 312 313 312 312 311 311 313 314 314 315 315 315 315
290 290 290 291 291 290 291 292 291 291 293 296 297 296 296 296 296 296 295 295 295 295 296 297 301 303 306 311 310 311 319 322 321 322 323 326 325 324 326 326 326 326 326 327 328 327 325 323 325 324 321 320 319 318 319 315 311 311 310 309 309 307 308 308 308 309 307 306 308 309 309 308 308 308 308 309 308 308 309 310 311 312 312 313 313
290 290 290 290 291 290 291 291 290 290 293 296 296 296 295 296 296 295 294 295 295 295 295 297 300 302 305 308 307 309 317 320 321 323 323 323 323 323 322 323 323 323 322 324 326 324 323 322 322 322 318 316 315 315 316 314 310 308 306 305 305 303 303 304 304 304 303 302 303 303 303 302 301 301 301 302 304 304 304 306 307 308 309 310 310
289 289 289 289 290 290 290 290 290 290 292 295 295 295 295 296 296 295 294 295 295 294 294 296 300 302 304 305 305 308 314 315 316 319 321 322 322 320 320 321 322 321 320 321 323 322 320 318 315 315 314 312 311 309 309 308 306 304 303 303 302 301 301 300 301 301 300 300 299 298 298 298 297 297 296 297 297 299 299 300 302 304 305 306 307
289 288 288 289 289 290 289 289 289 289 291 294 294 294 296 295 294 294 295 296 294 293 294 295 299 302 303 304 305 307 310 310 312 315 318 321 320 319 320 321 322 320 320 320 320 319 319 317 313 311 311 310 308 306 304 303 303 302 301 302 301 301 301 300 300 299 299 299 298 297 296 295 295 294 293 292 293 293 294 294 295 297 298 299 302
289 288 288 288 289 290 289 289 289 289 290 292 293 294 296 296 294 294 297 296 293 293 294 295 298 300 303 304 305 307 307 307 311 313 315 318 318 319 320 321 321 319 319 320 318 317 317 318 315 311 311 311 309 306 304 303 302 300 300 299 300 301 300 300 299 299 299 298 297 296 295 294 293 291 290 290 290 290 290 290 290 291 291 292 297
290 289 288 288 289 290 289 288 288 289 289 291 292 293 294 295 294 294 296 296 293 293 294 295 296 298 302 305 307 309 308 307 312 314 315 316 317 318 319 319 319 319 319 319 318 317 317 316 314 311 310 310 309 307 305 303 300 297 296 295 295 295 295 295 296 296 296 295 294 293 292 292 291 290 289 288 288 288 288 288 289 289 289 290 292
291 290 288 288 289 289 289 289 288 288 289 290 291 291 292 293 293 293 294 295 295 294 294 295 296 298 302 305 307 308 307 309 314 315 314 315 315 316 317 317 317 318 319 318 317 318 318 315 312 311 310 305 302 302 302 301 298 294 292 292 292 292 292 292 292 292 292 291 291 290 289 289 288 288 287 287 287 287 287 288 288 288 288 288 289
292 291 289 288 288 289 289 289 288 288 288 290 290 290 290 290 291 291 291 292 294 294 295 297 298 299 300 303 305 306 306 311 313 312 312 311 313 314 315 315 316 317 317 316 314 315 316 315 311 309 309 303 298 297 299 300 296 292 291 291 290 290 290 290 290 290 290 289 288 288 288 287 286 286 286 286 286 286 286 287 287 287 287 287 287
293 292 290 289 288 288 289 289 288 288 288 288 289 289 289 289 289 289 290 291 292 292 293 295 297 299 300 301 303 304 306 310 310 310 309 307 309 312 313 314 315 316 316 314 311 310 312 312 310 306 304 302 298 296 298 299 295 292 292 291 290 290 289 289 288 288 288 287 287 287 287 287 286 285 285 285 285 285 286 286 286 286 286 286 286
293 293 292 290 288 288 288 288 288 288 288 288 288 288 288 288 289 288 289 290 290 290 291 292 295 297 298 300 301 303 305 307 308 308 307 304 306 309 311 312 313 313 313 312 310 310 310 308 308 305 301 298 296 295 298 298 294 292 294 294 293 292 290 289 288 287 287 287 287 287 287 287 286 285 284 284 284 285 285 285 285 285 285 286 286
293 293 292 291 289 288 288 288 288 288 288 288 288 288 288 288 288 288 288 289 289 290 290 291 292 294 295 297 298 300 301 303 305 306 305 303 304 306 308 309 310 311 311 311 310 309 308 306 305 304 301 297 296 296 297 295 295 297 299 298 295 294 293 290 288 287 287 287 286 286 286 285 285 285 284 284 284 285 285 285 285 285 285 285 285
293 293 293 292 290 289 288 288 288 288 288 288 288 288 288 288 288 289 289 288 289 289 289 289 290 290 292 293 295 296 297 298 299 301 302 302 303 305 306 307 307 309 309 309 309 307 306 306 304 303 302 299 297 297 295 295 298 300 300 299 299 300 296 290 289 288 287 286 285 285 284 284 284 284 284 284 284 284 284 285 285 285 285 285 285
293 294 293 293 292 290 288 288 288 288 288 288 288 288 288 288 288 288 288 289 289 288 287 288 288 288 289 290 291 292 293 295 295 296 298 299 301 302 303 304 305 306 307 307 307 306 305 305 304 303 302 301 300 297 294 296 300 300 300 300 303 304 296 291 292 290 286 286 286 285 284 284 284 284 284 284 284 284 284 285 285 285 285 285 284
293 294 294 293 293 291 290 288 288 288 288 288 288 288 288 287 287 287 288 288 288 287 287 287 288 288 289 289 289 290 290 291 292 293 293 294 295 297 298 300 301 303 305 305 305 305 305 304 303 303 302 301 300 298 295 297 300 300 300 301 302 302 295 294 296 292 289 288 286 286 285 284 285 284 284 284 284 285 285 285 285 284 284 284 284
294 294 295 294 294 293 291 290 288 288 288 288 288 288 288 287 287 287 288 288 287 287 287 288 288 288 289 289 289 289 289 290 290 290 291 291 292 292 293 294 296 298 299 301 302 303 304 304 303 303 302 300 298 298 298 298 298 299 299 298 298 298 296 297 297 294 292 289 286 286 286 285 285 285 285 285 285 285 285 285 285 284 284 284 284
295 294 295 295 294 294 293 291 289 289 288 288 288 288 288 287 287 287 288 288 287 287 287 288 288 288 288 289 289 289 289 289 290 290 290 290 290 291 291 291 292 292 293 294 296 298 300 302 302 302 301 299 298 299 298 296 295 296 295 295 295 294 295 296 295 294 293 290 288 288 286 286 286 285 285 285 285 285 285 285 286 285 285 285 285
296 295 295 295 295 295 294 293 291 289 289 289 288 288 288 288 287 287 287 287 287 287 288 288 288 288 288 288 289 289 289 289 289 290 290 290 290 290 290 290 290 290 291 291 291 292 293 295 297 298 298 298 297 296 295 294 294 294 293 293 293 293 294 294 293 293 293 291 291 289 288 289 288 287 286 285 286 285 285 286 286 287 286 286 285
297 296 295 295 295 295 295 294 293 291 290 289 289 288 288 287 287 287 287 287 286 287 288 288 287 288 288 288 288 288 288 289 289 289 289 289 290 290 290 290 290 290 290 290 290 290 290 291 291 292 293 293 292 291 291 291 292 292 292 292 292 292 293 293 293 293 292 292 291 290 290 290 290 289 287 286 286 286 286 286 286 287 286 286 285
Wind_Speed
37 40 38 38 34 27 24 19 22 26 23 24 17 9 10 11 10 9 9 9 8 7 8 6 7 9 11 12 12 12 10 10 9 9 10 8 8 8 9 9 8 8 8 8 7 7 7 8 9 10 10 11 10 10 10 9 9 8 8 7 8 9 10 11 11 9 10 11 10 11 11 11 10 9 10 11 11 13 13 13 12 10 10 9 9
37 37 36 37 34 29 23 19 24 26 24 23 19 13 13 13 11 10 10 10 10 8 8 8 9 11 13 13 14 14 13 11 10 10 9 10 9 8 9 9 9 9 8 8 7 7 7 8 9 10 10 10 10 10 10 10 10 8 8 8 7 8 9 11 11 12 11 10 11 11 11 12 11 10 10 11 11 13 13 12 10 8 9 9 8
34 32 31 35 33 29 23 21 25 26 25 24 21 17 13 13 13 11 11 10 11 10 9 9 10 12 14 15 15 15 15 12 11 11 10 10 10 9 9 9 10 10 8 8 8 8 7 8 9 9 10 10 10 10 10 10 9 9 9 9 7 9 11 10 10 11 11 11 12 11 10 11 10 9 9 10 10 11 11 10 9 8 8 8 8
33 29 28 33 33 29 24 23 27 26 25 24 21 19 16 11 12 12 12 12 12 12 11 9 9 11 14 16 15 15 14 13 13 12 12 12 11 10 10 9 9 10 9 9 8 8 8 7 8 8 9 10 10 9 10 10 9 9 9 8 8 9 11 11 10 11 11 12 12 9 8 9 9 10 10 9 8 9 9 9 9 9 8 8 8
31 29 28 31 32 29 25 25 27 25 26 24 21 18 17 15 8 12 12 13 13 12 12 11 10 11 14 16 16 16 14 14 14 14 13 12 12 12 12 11 9 9 9 10 10 10 9 8 8 8 9 9 10 10 10 9 8 8 8 7 8 10 10 10 10 11 11 12 11 8 7 8 8 9 8 8 8 9 8 8 8 8 9 8 8
29 29 28 29 30 29 26 26 27 25 25 24 21 18 15 16 10 12 13 13 14 14 13 12 12 11 13 16 17 17 16 16 15 14 13 13 13 12 12 12 11 10 9 10 10 10 10 10 9 9 8 8 9 10 9 9 7 7 7 8 9 9 9 9 9 10 11 10 8 7 6 7 7 7 7 7 7 7 6 6 6 6 7 7 7
28 29 28 27 28 27 27 26 26 25 25 23 21 19 17 17 12 9 12 14 15 15 14 14 13 12 13 14 15 17 16 15 15 14 13 13 14 13 13 13 13 11 9 9 10 10 10 10 10 10 9 8 8 8 9 8 7 6 6 7 9 9 9 8 9 10 10 8 6 6 6 6 6 6 6 6 5 4 4 4 4 4 5 5 4
26 28 28 27 27 26 26 25 25 25 24 23 21 18 18 18 13 9 11 14 16 15 15 14 14 14 14 13 14 15 14 14 14 13 12 13 14 15 14 13 13 12 10 10 9 10 10 10 10 11 10 8 7 7 8 8 7 6 6 6 7 9 10 9 9 10 9 6 5 5 6 5 5 6 5 5 4 3 5 5 5 4 5 6 6
24 26 27 27 26 25 26 25 24 24 23 23 21 19 17 17 15 12 11 12 14 15 16 15 15 14 14 13 15 15 13 14 13 12 12 12 12 14 15 14 14 13 12 10 9 9 9 9 10 11 10 9 8 8 7 7 6 6 6 5 6 9 11 10 9 8 6 4 4 4 5 5 4 5 4 4 5 4 6 6 6 7 7 8 6
23 24 25 27 27 26 25 25 23 22 22 22 20 18 16 15 15 14 13 12 12 13 15 15 15 15 14 13 14 14 13 13 12 11 12 11 11 13 14 15 16 14 13 11 10 9 8 9 10 11 10 10 9 8 7 6 6 6 6 5 7 10 10 10 8 6 5 4 4 4 6 7 5 4 4 4 5 5 7 7 7 8 6 6 5
22 24 25 26 27 27 26 24 24 22 21 20 19 17 16 15 14 15 14 14 12 11 12 14 15 15 13 14 15 15 14 13 12 12 12 12 12 12 14 16 17 15 13 12 11 9 9 9 10 11 11 10 10 9 8 7 7 8 7 6 8 11 10 9 7 5 4 4 4 4 6 7 4 3 4 5 5 5 7 8 7 6 3 2 3
24 25 25 26 27 27 26 25 24 23 22 20 18 16 15 15 14 14 14 14 14 12 11 12 16 15 14 17 17 16 15 13 12 13 13 12 12 12 13 15 18 15 13 12 11 10 9 9 10 11 11 10 9 9 9 8 8 9 8 8 9 11 11 9 6 4 4 4 3 3 4 4 2 1 3 4 5 6 6 6 5 4 2 2 3
24 25 26 27 27 26 26 26 25 23 22 22 19 16 14 14 14 14 14 14 15 14 11 10 13 15 14 17 18 17 16 15 14 13 13 13 13 13 13 14 17 16 14 13 12 11 10 10 10 10 11 9 9 8 8 9 8 9 9 9 10 11 12 10 6 5 5 4 3 3 4 3 2 1 1 1 3 6 7 6 5 4 2 3 4
25 27 27 28 28 28 27 27 27 24 23 22 20 17 14 14 14 13 13 14 15 16 14 10 9 13 16 18 17 18 17 17 16 14 14 14 14 14 14 14 16 17 15 13 13 12 11 10 9 9 9 8 8 8 8 8 8 9 10 10 10 11 12 10 7 5 5 5 4 3 4 3 3 2 1 3 3 3 4 5 5 5 4 4 4
26 29 29 29 30 29 28 28 28 27 24 22 21 19 16 15 14 13 13 14 15 15 17 14 10 10 15 18 17 20 18 17 17 15 15 14 15 15 15 15 16 18 17 15 14 14 12 10 9 9 8 8 9 9 8 7 8 8 9 10 10 11 12 10 7 6 6 5 5 4 4 3 5 3 1 1 3 3 3 3 3 4 3 2 2
29 30 30 31 32 31 30 29 28 28 27 25 22 21 18 17 16 14 14 14 15 15 17 18 15 11 13 17 18 20 19 17 17 17 17 16 16 15 15 15 15 18 17 16 16 15 13 10 9 9 8 8 8 8 8 7 8 8 8 9 10 11 12 10 7 7 6 6 6 5 5 4 6 4 3 2 2 1 2 0 0 3 2 3 2
31 31 30 31 33 33 32 31 30 28 28 27 24 23 21 19 17 17 15 15 16 16 16 18 19 16 13 16 17 18 20 20 20 20 18 16 18 17 16 15 16 17 17 17 16 15 14 11 10 10 9 9 8 8 8 8 8 8 8 8 9 10 11 10 7 7 6 7 6 6 5 5 6 5 2 2 2 2 1 1 0 2 3 4 3
34 33 30 29 32 33 33 33 32 30 29 28 27 25 23 21 19 18 17 16 16 16 17 17 18 19 16 16 17 17 19 20 22 22 19 17 18 19 18 16 16 17 17 18 17 16 15 13 12 12 10 10 9 8 8 8 7 8 7 8 9 9 11 10 7 7 6 6 7 6 5 3 4 5 2 2 2 2 2 1 2 2 3 3 3
34 34 30 29 31 32 33 33 33 32 30 29 28 26 24 23 22 20 19 18 16 15 16 18 18 20 19 18 17 16 16 16 19 21 20 18 18 20 19 18 18 18 18 19 18 17 16 15 14 14 12 12 10 8 8 7 7 6 6 7 8 8 9 9 8 7 6 7 6 5 3 1 1 2 1 2 3 3 2 2 2 2 3 2 4
31 32 28 29 31 30 31 32 32 32 29 26 25 24 22 23 25 23 21 20 17 15 15 16 19 21 20 19 19 17 16 15 16 19 20 20 19 20 20 20 19 19 19 19 19 19 18 17 17 15 14 13 12 9 8 8 6 5 5 6 7 8 8 8 8 7 7 7 6 4 2 2 2 3 4 4 3 3 2 1 2 4 2 2 2
28 30 28 29 30 28 29 30 30 30 26 22 20 22 22 21 25 26 24 22 19 17 15 14 16 21 21 20 21 20 17 16 16 17 20 20 19 20 21 21 20 20 20 19 20 20 19 19 18 17 15 14 13 10 9 8 6 5 6 7 8 7 7 7 7 7 7 7 6 5 4 4 5 6 5 4 4 4 3 3 4 3 2 1 1
27 30 30 31 30 28 28 28 27 26 24 21 18 21 23 20 22 26 25 24 21 18 17 16 14 19 21 19 21 22 19 19 18 17 19 20 19 20 21 22 22 21 20 20 21 21 19 19 18 17 16 16 15 13 12 9 8 7 8 9 8 6 7 7 7 6 6 6 5 5 5 4 3 3 3 3 3 3 2 2 2 3 3 2 2
26 27 29 33 32 29 29 26 25 26 23 22 18 20 22 19 20 23 23 24 23 21 19 18 16 16 19 19 20 24 24 22 21 20 19 18 18 20 20 21 22 22 22 21 22 21 19 19 17 17 17 17 15 14 14 12 10 9 10 10 7 6 7 7 7 5 6 6 4 4 5 3 3 2 3 5 2 1 3 3 3 3 5 5 4
22 22 24 30 33 32 31 26 25 26 23 22 20 20 21 18 19 20 22 22 21 22 21 19 19 17 18 20 19 23 27 27 25 25 24 20 18 18 18 21 23 23 23 22 22 23 20 20 19 18 18 18 16 15 15 14 12 11 10 9 7 7 7 6 7 5 5 5 4 4 5 4 5 5 4 5 4 4 6 7 6 4 6 7 5
19 19 21 26 29 31 31 27 25 25 23 22 20 20 20 18 18 17 20 20 18 22 22 21 21 19 18 20 20 21 25 28 26 27 28 23 19 20 21 23 23 22 24 23 22 23 23 22 21 20 20 19 17 17 16 14 13 12 10 9 9 8 6 5 6 6 5 4 3 4 4 5 6 7 6 6 6 7 6 6 6 4 4 5 4
19 19 22 23 25 27 27 27 26 24 24 23 20 20 20 19 18 17 19 20 19 21 21 22 23 21 19 19 20 20 24 27 25 24 25 24 22 23 23 22 21 20 21 21 20 21 22 21 20 22 22 20 18 18 17 15 13 12 12 11 10 8 7 6 7 8 7 6 5 4 3 2 3 4 5 5 6 6 3 3 4 4 5 6 7
18 19 21 22 24 26 25 24 25 24 24 23 20 20 19 19 19 17 18 20 20 21 20 22 24 23 21 19 19 18 22 28 25 22 22 24 25 23 21 20 20 19 18 17 16 17 19 19 22 25 24 21 19 19 17 16 16 16 15 12 10 8 7 7 9 9 8 7 7 5 3 2 3 2 1 3 4 5 7 9 11 12 13 14 14
18 21 22 21 24 26 24 23 24 23 23 22 19 19 19 19 19 18 18 19 20 20 20 22 23 23 21 20 20 18 21 28 27 24 23 24 25 22 20 18 18 18 17 15 14 15 17 21 27 28 25 22 21 20 18 18 18 18 15 11 9 9 7 8 10 11 10 9 9 7 6 5 6 6 7 8 9 12 14 15 16 18 18 17 18
19 22 21 21 25 27 24 23 25 23 21 20 18 19 18 19 20 18 17 19 20 20 20 21 22 23 21 19 18 17 19 28 27 22 21 21 22 20 18 17 16 16 16 15 15 15 18 21 26 26 23 22 21 20 19 18 19 18 13 9 9 9 9 10 11 13 13 12 13 11 9 10 13 17 18 17 16 16 17 17 18 18 18 17 17
19 20 20 21 25 27 24 24 26 23 21 20 19 19 18 18 19 18 17 18 19 19 19 18 20 20 19 17 13 13 17 27 27 19 17 17 17 17 15 15 15 15 15 15 15 15 17 19 23 24 22 21 21 21 20 18 18 14 11 9 10 11 12 13 13 14 14 15 15 13 13 12 13 17 19 19 18 18 17 16 17 16 15 15 14
19 20 21 22 25 28 27 26 27 25 22 20 20 19 18 17 17 17 16 17 17 17 17 17 17 17 16 15 10 10 11 21 25 16 15 15 13 15 15 15 14 15 16 15 15 15 16 19 24 25 23 22 22 21 20 19 17 13 12 13 13 14 15 15 15 14 14 15 15 14 14 12 11 13 16 18 17 17 16 16 16 16 15 14 14
18 19 21 22 24 27 29 28 28 29 26 23 22 20 18 16 16 16 15 16 17 16 16 17 16 14 12 9 4 3 3 14 22 16 15 15 14 16 17 16 15 16 17 16 16 16 17 22 24 24 23 22 20 20 20 19 17 15 15 16 16 16 17 17 17 16 16 15 15 14 13 12 11 12 14 17 17 17 17 17 17 16 15 15 15
17 19 21 22 23 26 28 28 29 30 29 29 25 19 18 17 16 15 14 16 17 17 15 16 15 12 9 3 4 5 7 12 16 15 14 15 15 16 15 15 14 15 16 17 16 14 18 24 22 21 22 21 20 22 22 19 17 16 16 16 16 16 18 18 18 18 18 17 16 16 15 14 13 12 13 15 16 17 17 17 16 16 15 15 15
16 19 21 22 23 24 27 28 30 30 29 30 26 20 19 17 16 15 14 15 16 17 15 15 14 11 7 3 7 8 10 12 12 13 13 13 12 11 11 11 12 13 13 15 16 16 21 23 22 21 22 22 24 24 22 20 19 18 17 17 17 17 17 18 18 18 17 17 18 17 16 16 15 15 14 14 15 16 17 17 17 16 16 15 15
16 18 21 22 23 23 25 27 28 28 26 26 27 25 21 16 16 15 14 16 16 17 16 16 16 11 9 7 9 11 12 11 11 13 12 11 9 7 6 6 8 9 11 13 17 20 23 23 24 26 26 26 27 26 22 21 19 19 19 18 18 17 17 17 18 17 17 18 18 18 18 17 17 16 16 14 14 14 14 15 15 16 16 17 17
16 18 20 22 23 22 23 25 26 26 23 22 24 26 23 17 16 17 17 18 18 17 16 17 18 14 12 12 13 15 16 14 15 16 16 16 15 15 15 14 13 12 13 13 16 18 20 22 22 27 32 30 29 28 25 24 23 21 19 19 18 17 18 18 18 18 18 18 18 18 18 18 17 16 16 15 14 12 11 11 11 11 13 16 18
17 18 20 21 22 21 22 24 25 26 22 21 22 24 27 23 19 21 24 22 19 19 18 19 21 19 17 16 16 18 19 18 19 20 21 22 21 21 21 19 20 21 17 12 15 18 19 21 21 23 29 31 30 29 28 27 25 23 21 20 19 18 18 18 18 17 16 17 17 17 17 17 16 16 16 16 15 13 11 10 9 9 9 12 16
17 18 19 20 20 20 22 23 24 25 23 23 23 23 27 27 24 27 29 25 21 21 23 24 23 23 23 21 19 19 20 19 21 22 22 23 22 22 22 21 20 22 20 15 16 20 22 24 24 22 23 26 27 28 28 27 26 25 23 21 20 19 18 18 17 16 15 16 16 16 16 15 15 16 16 16 15 14 13 12 11 10 9 10 12
17 17 18 19 19 20 21 22 24 25 25 23 22 22 25 28 28 29 30 28 25 24 27 27 25 25 27 26 22 20 21 22 23 23 22 21 21 22 22 21 20 20 21 21 20 22 23 25 27 26 25 26 27 29 29 29 28 26 24 22 20 20 20 18 18 18 17 17 17 16 15 15 15 15 15 15 15 14 13 13 12 11 10 10 10
16 17 17 18 19 20 21 22 23 25 26 23 21 23 24 27 29 30 30 30 30 29 29 29 29 28 30 29 25 21 22 23 22 21 20 19 19 21 22 22 22 22 23 25 24 23 23 24 27 29 29 29 30 31 30 31 32 29 26 24 21 19 19 18 19 19 18 17 17 16 15 16 15 15 15 15 15 15 14 14 13 12 11 10 9
15 16 17 18 19 20 21 22 23 24 25 24 22 22 22 24 26 28 28 28 29 30 30 31 32 30 31 30 27 24 23 22 20 18 18 17 17 18 20 21 22 23 24 26 26 26 25 25 27 28 29 31 30 29 31 32 31 26 21 22 21 19 18 18 18 17 17 16 16 16 15 15 15 15 16 15 15 16 15 15 14 13 12 11 10
15 16 17 17 18 18 19 20 21 22 23 23 22 21 20 19 20 22 23 25 26 28 29 30 31 30 31 30 28 27 25 23 21 19 18 17 18 18 18 19 20 21 23 24 26 27 26 25 27 27 28 31 30 28 25 20 19 18 16 15 14 14 16 16 16 15 14 14 14 14 14 14 14 15 15 15 16 16 16 15 14 14 13 12 11
14 16 16 17 17 17 18 19 19 20 21 21 21 20 19 18 17 18 19 21 23 24 26 26 27 28 29 29 28 28 27 26 23 21 20 18 19 19 20 19 18 20 22 23 24 24 25 24 25 27 28 27 26 21 13 11 16 19 14 8 5 6 8 10 12 12 12 13 12 13 13 13 13 13 14 15 16 16 16 15 14 14 13 13 12
13 14 15 16 16 16 16 17 17 18 18 19 19 19 18 18 18 18 18 20 20 22 24 25 26 26 26 27 27 27 26 26 25 23 21 18 19 20 21 20 19 19 20 21 22 22 22 22 22 26 27 24 18 10 9 18 22 15 8 5 3 3 3 4 7 9 9 10 11 11 12 12 11 12 13 14 15 15 15 14 14 14 13 13 13
11 13 14 15 15 15 15 15 16 16 17 17 18 18 18 19 19 20 21 22 23 24 25 26 26 26 26 25 24 24 25 25 25 23 20 18 20 21 21 21 20 19 18 18 19 18 18 19 20 22 23 22 18 12 16 22 15 9 8 6 3 1 2 6 7 6 6 7 8 9 11 11 11 11 12 13 14 14 14 13 13 13 13 13 13
9 10 12 13 13 13 13 14 14 15 15 16 16 17 17 19 20 21 21 20 20 22 23 23 24 25 25 24 23 23 23 23 22 20 19 19 21 22 21 21 20 19 19 18 17 16 15 16 16 17 17 19 19 19 21 16 7 8 11 7 3 3 7 10 5 3 4 4 5 6 9 11 11 11 11 11 12 12 13 13 13 13 13 13 13
7 8 9 11 11 11 11 12 13 13 13 14 15 16 16 17 18 18 18 17 15 17 18 19 21 22 22 23 23 23 23 23 22 21 21 21 22 22 21 20 20 19 18 18 17 15 14 14 13 14 15 16 18 21 21 13 7 8 10 7 5 8 17 14 5 4 4 3 3 3 4 7 9 10 10 9 10 11 12 12 13 13 13 13 13
7 6 7 8 9 10 10 10 11 11 12 13 13 14 14 14 15 15 15 15 15 15 16 17 18 19 20 22 22 23 23 23 23 23 23 23 23 23 22 21 20 19 18 17 17 15 13 12 12 13 16 16 17 21 20 13 9 9 7 6 7 14 18 12 9 9 4 4 5 3 4 4 4 6 8 9 8 8 9 10 12 13 13 13 13
7 6 6 7 7 8 9 8 8 9 10 10 11 12 12 12 13 13 11 12 12 13 14 14 15 16 18 19 19 20 20 21 21 22 22 23 23 22 22 22 21 20 20 19 17 16 14 13 13 13 15 17 18 19 17 13 12 11 9 9 13 15 12 7 9 7 4 5 5 4 6 5 3 4 4 6 7 7 7 8 10 11 12 12 13
7 6 6 6 6 7 8 8 7 7 7 8 9 9 10 10 10 10 10 9 10 10 11 12 12 13 14 15 16 17 17 18 18 18 19 19 20 20 20 20 21 21 20 20 19 18 17 15 14 14 14 15 15 15 14 13 14 13 11 10 11 10 7 6 7 6 5 5 4 6 8 6 5 5 5 4 4 5 6 6 8 9 10 11 12
6 6 6 6 6 6 7 7 7 6 6 6 7 7 8 8 7 8 8 8 8 8 7 8 10 10 11 12 12 13 14 14 15 15 16 16 16 17 17 18 18 18 18 18 18 18 18 17 16 15 14 14 14 13 13 14 14 13 12 12 9 7 6 5 7 7 6 5 5 6 6 6 4 4 5 5 3 3 3 4 5 6 8 10 11
Wind_Direction
335 341 346 349 354 351 344 345 340 336 334 344 342 299 272 246 242 237 239 250 247 246 230 232 220 198 185 185 190 190 193 196 196 183 173 169 160 152 147 143 141 138 139 134 133 131 129 128 126 125 122 122 118 116 114 112 111 110 124 126 122 114 106 108 100 101 107 96 93 95 92 91 88 85 82 77 89 97 96 93 86 85 84 87 100
328 338 344 345 353 353 346 350 344 335 327 337 347 327 287 246 239 237 233 245 244 246 237 233 222 205 197 195 195 197 199 198 197 193 187 176 168 166 154 147 146 143 143 139 138 137 137 136 132 131 127 127 123 122 120 115 116 115 124 126 127 123 116 116 109 107 115 110 102 96 92 91 86 87 90 85 89 94 91 91 91 92 83 84 91
330 337 338 342 351 352 350 352 343 336 329 332 345 345 313 255 234 235 233 239 245 245 244 237 222 212 210 207 204 207 206 203 202 203 202 189 181 176 158 154 152 145 146 145 144 144 144 143 139 136 132 129 123 122 124 122 120 115 116 115 118 130 128 122 116 114 121 122 107 95 92 88 84 89 96 93 93 91 85 84 87 95 91 81 72
336 337 334 341 350 352 353 352 342 337 334 332 337 347 342 300 234 229 239 237 241 242 249 243 226 220 218 216 213 214 214 213 215 213 210 204 195 182 167 166 160 151 151 152 152 149 149 147 144 141 136 131 125 125 126 127 125 118 116 117 121 135 137 125 121 123 123 125 113 98 97 92 90 93 97 96 97 90 82 81 80 92 98 87 77
339 340 336 342 349 352 354 349 342 339 338 336 333 337 346 338 265 236 251 245 240 241 248 247 236 225 216 218 217 218 220 223 227 220 214 214 203 187 177 174 168 164 158 158 160 154 152 151 149 146 143 137 133 132 129 132 130 123 118 119 125 134 141 135 131 131 131 130 118 104 103 99 96 96 94 93 102 94 82 80 73 85 93 89 88
338 339 341 343 347 351 353 348 343 340 339 339 336 331 335 342 315 257 259 259 254 246 243 244 240 230 220 219 217 216 222 230 233 222 215 216 206 193 187 183 173 170 169 166 162 156 153 154 152 149 148 144 139 136 134 134 133 131 128 127 130 134 142 145 143 144 144 133 116 110 110 104 101 100 95 94 108 102 85 90 83 85 90 86 89
338 339 345 346 346 350 353 347 343 342 340 340 337 332 328 331 331 287 272 268 265 253 243 242 239 233 227 225 218 215 220 226 224 214 209 211 208 202 194 190 181 170 173 171 164 160 154 154 153 151 151 147 142 138 137 138 139 140 142 143 140 141 145 145 145 146 141 131 120 120 119 112 108 108 107 105 114 111 100 108 109 107 98 92 99
339 340 345 347 347 349 352 347 343 343 340 341 337 332 329 323 328 329 299 277 272 262 248 244 240 235 230 227 223 216 212 214 213 210 209 207 210 210 198 193 189 174 176 176 171 169 162 161 156 153 153 149 146 141 141 142 148 150 149 152 152 156 155 147 143 139 129 128 131 129 132 125 120 115 112 118 119 124 122 112 118 133 120 108 106
337 341 343 346 348 349 351 348 345 344 341 341 338 334 332 324 316 321 315 296 288 273 257 248 243 239 232 226 223 219 212 212 210 209 214 210 210 212 202 196 196 183 181 184 181 179 175 168 155 153 155 152 150 148 149 150 156 158 158 156 155 160 161 159 151 139 125 126 127 130 145 134 133 126 114 128 125 136 145 121 115 133 130 118 102
338 344 344 345 346 349 351 350 349 347 344 340 338 334 328 323 318 315 307 299 301 288 270 260 252 245 239 230 224 224 219 217 212 208 216 216 216 215 205 200 199 190 185 189 189 187 183 172 155 153 157 157 155 156 158 158 167 166 166 166 163 160 160 164 156 143 134 127 116 125 145 136 136 137 131 141 136 144 151 136 131 141 136 124 102
345 349 348 346 346 348 349 350 350 348 347 342 336 331 325 319 316 317 309 296 297 300 288 272 260 251 243 236 227 227 225 219 216 214 217 219 221 219 208 203 201 194 190 192 195 193 186 179 166 159 159 161 161 166 169 168 177 177 171 166 170 168 163 163 157 151 149 138 121 124 143 139 134 149 152 154 157 152 144 142 144 145 143 144 118
351 352 351 350 347 346 347 349 349 347 346 345 338 329 326 320 311 310 313 304 291 291 299 286 263 251 244 239 228 224 223 219 219 219 218 220 223 221 212 206 204 199 195 195 197 198 188 185 181 172 168 170 172 176 182 182 185 183 174 170 175 176 170 164 163 167 160 154 144 140 156 150 136 158 160 164 184 189 175 169 165 174 204 173 127
353 354 354 355 351 348 346 347 348 346 344 344 342 331 324 321 314 304 308 310 292 278 288 304 275 254 247 246 237 227 222 218 219 220 220 222 225 225 218 211 207 201 198 197 201 204 192 188 190 187 183 180 179 182 192 196 196 185 176 175 175 181 180 172 174 181 173 170 171 171 175 173 170 154 53 105 177 197 191 174 154 158 148 96 88
354 357 358 357 353 352 349 348 346 346 345 343 341 335 326 320 316 307 304 305 297 283 276 291 289 260 252 254 246 233 223 217 216 217 221 226 229 226 222 216 209 203 203 202 203 208 200 194 196 195 192 187 185 186 194 203 202 184 178 178 177 182 183 182 184 188 185 183 197 196 178 182 179 147 359 19 67 126 136 123 107 97 92 79 68
357 359 0 358 356 354 351 350 347 345 345 344 342 337 331 325 319 313 307 300 294 289 275 268 278 263 254 257 247 233 225 220 218 215 218 228 232 226 220 217 213 209 208 208 206 210 209 201 197 197 192 187 189 190 195 202 200 188 183 180 178 180 180 187 195 194 191 192 208 207 193 203 188 150 120 12 40 63 68 84 73 49 70 75 76
1 2 1 358 357 355 352 351 348 345 343 343 344 341 336 331 325 317 308 301 292 286 274 262 263 258 250 251 246 237 231 225 221 219 217 222 230 229 221 217 217 214 211 211 208 208 209 205 196 197 193 184 182 188 197 199 199 196 190 185 181 180 180 185 198 200 199 202 212 212 208 217 208 179 137 93 48 54 48 123 44 18 35 28 10
5 4 0 358 357 355 353 351 350 346 343 340 341 342 341 336 331 324 311 297 289 285 276 263 256 253 248 245 244 238 233 232 229 226 221 221 227 229 226 220 219 218 214 212 210 208 208 206 198 196 194 189 178 182 199 199 202 203 196 193 187 184 182 183 199 205 206 210 212 218 220 226 223 207 161 79 43 55 51 282 340 29 17 18 347
7 6 1 358 357 356 354 351 351 348 345 341 339 339 340 340 335 328 319 302 291 285 278 269 254 248 246 243 243 237 235 237 234 230 225 224 228 229 229 225 223 224 220 216 213 212 211 208 201 198 197 195 185 184 201 203 205 207 203 201 193 191 186 185 199 204 206 213 217 225 223 225 209 182 137 63 23 24 54 30 42 36 8 11 334
5 5 1 359 357 357 356 353 351 349 346 342 339 336 336 340 340 332 325 316 302 288 277 272 259 247 242 240 239 235 235 236 231 229 226 224 229 232 231 227 226 227 226 220 216 214 214 211 205 201 198 195 192 193 200 199 201 199 199 201 198 193 186 190 202 202 201 206 219 226 214 215 147 129 49 1 348 352 34 61 34 1 354 344 330
2 2 358 356 356 356 354 353 351 348 346 341 339 338 334 336 340 337 329 324 312 296 281 271 261 250 241 235 233 232 232 234 232 228 226 224 227 232 233 230 228 229 231 226 221 218 216 214 208 202 198 194 194 196 194 194 194 187 186 188 186 184 186 197 201 197 199 205 218 221 222 278 317 323 318 332 330 318 324 308 297 308 320 323 339
0 0 357 355 354 353 351 351 349 347 346 340 336 339 337 333 337 338 333 329 319 306 293 278 263 253 244 235 230 228 227 232 234 231 228 226 227 232 233 234 232 231 234 232 226 221 218 217 211 203 197 194 194 190 190 192 185 174 169 166 168 175 183 191 193 196 202 208 222 230 245 271 301 310 304 314 312 288 276 263 266 275 271 295 316
357 357 358 357 354 350 348 347 347 344 343 340 336 337 336 330 334 337 334 332 325 316 303 291 274 256 247 236 229 226 223 223 225 229 232 229 229 232 232 235 236 234 235 235 234 228 218 216 213 201 193 197 195 185 184 183 171 159 151 153 159 173 178 179 182 183 187 201 223 244 252 272 306 318 294 270 294 299 259 241 247 249 244 247 238
354 353 354 358 357 351 347 346 345 342 340 341 337 335 335 330 331 334 334 332 328 322 311 299 289 268 250 238 230 228 225 221 217 218 230 235 231 230 230 235 239 239 238 236 239 237 222 215 214 201 195 200 195 182 181 174 162 151 147 152 156 170 174 173 178 169 166 184 201 247 262 278 286 285 254 223 212 266 236 218 217 224 224 221 224
348 347 347 354 358 354 350 347 345 342 340 340 337 335 334 331 330 331 332 331 328 325 317 305 298 284 261 242 235 235 232 230 225 221 229 240 237 233 231 236 240 239 239 236 236 240 229 216 212 203 198 200 191 181 176 167 160 152 150 157 157 163 165 166 178 169 156 169 189 240 264 260 245 243 245 231 214 237 243 234 232 224 219 222 225
343 344 346 350 354 355 352 347 345 342 341 339 336 335 334 333 330 330 331 329 327 325 321 312 304 295 277 253 242 241 236 232 230 228 230 232 234 235 232 235 239 237 240 237 233 237 234 219 208 205 202 198 189 179 171 163 161 157 154 157 152 149 146 151 164 161 150 146 168 216 244 244 240 238 237 240 235 244 252 240 233 225 212 211 199
345 346 345 347 350 352 352 348 344 342 342 340 336 335 335 334 332 331 331 328 326 325 323 318 310 303 292 269 251 243 235 227 225 227 227 223 227 232 229 230 235 237 241 240 236 239 239 224 207 205 201 193 187 178 170 165 161 158 157 154 146 142 142 144 145 142 136 126 139 176 218 263 281 263 240 233 229 231 224 177 161 138 122 115 106
344 345 344 346 348 350 350 347 345 344 342 339 338 338 337 335 333 332 331 328 327 325 324 322 317 310 301 282 263 249 236 226 220 220 219 221 227 231 227 227 231 233 239 243 242 242 242 230 212 206 198 188 185 179 172 167 161 157 159 156 148 146 145 146 145 136 125 123 138 147 123 48 353 329 206 183 182 153 124 117 113 107 103 99 93
343 346 347 346 349 351 350 347 348 348 344 341 342 341 338 336 333 331 330 329 328 326 326 326 323 316 307 290 271 260 240 225 219 218 218 220 225 229 228 228 231 231 235 242 245 242 241 228 211 204 196 187 182 177 175 170 164 162 162 160 151 148 148 152 151 142 134 129 131 130 117 97 71 75 98 114 125 117 108 104 100 94 90 91 88
344 346 346 346 352 354 350 349 352 351 347 345 343 343 340 336 334 332 330 331 330 328 328 329 328 320 309 297 276 262 243 221 214 216 217 221 224 227 229 230 235 233 232 238 248 247 239 225 208 200 192 186 181 178 178 173 170 168 168 165 153 150 152 153 148 142 139 133 128 127 133 119 93 90 93 93 98 96 93 92 88 85 82 82 82
344 345 347 347 354 356 352 353 355 353 350 348 346 343 340 337 335 332 331 333 333 331 332 332 332 324 310 302 276 254 244 217 207 209 215 224 226 225 230 234 238 237 235 238 245 245 233 216 200 197 193 185 182 181 180 177 175 168 164 165 158 158 157 153 148 142 136 132 130 128 136 134 111 102 91 81 80 79 80 81 78 78 77 76 77
345 346 350 352 354 359 1 1 1 359 355 350 347 343 340 338 336 334 334 336 336 336 338 338 335 326 312 307 277 250 248 210 197 198 215 227 225 222 227 230 238 243 244 241 237 238 226 202 191 192 191 184 184 184 180 178 175 164 163 167 164 165 164 159 154 146 138 135 135 131 134 135 126 117 94 77 75 75 77 75 72 73 73 73 74
345 345 350 354 355 1 6 7 7 6 4 357 349 346 343 338 336 336 336 338 342 343 343 347 344 333 318 312 290 245 222 190 187 190 214 228 229 227 228 228 235 241 244 240 232 234 219 196 189 187 183 181 178 174 174 174 168 161 160 160 161 164 162 159 154 143 133 131 135 133 133 130 123 124 109 92 80 73 76 76 76 77 73 72 72
344 346 352 356 358 2 6 8 10 11 12 6 357 350 342 339 338 337 340 343 348 351 350 356 355 345 333 345 62 77 116 150 172 188 215 228 229 227 228 229 229 230 236 237 227 218 203 189 185 183 179 176 162 152 156 154 147 147 147 147 148 150 149 149 146 141 133 127 130 129 127 125 120 119 116 107 88 72 73 75 76 77 75 72 69
345 349 355 0 3 4 5 9 10 13 17 13 10 2 347 343 343 341 346 351 356 356 355 4 6 3 8 62 65 73 120 134 153 181 203 211 216 219 224 227 224 216 212 223 215 193 188 187 184 175 162 158 148 142 146 136 127 131 132 136 136 133 137 138 137 138 134 128 129 129 124 119 116 114 113 112 101 83 74 73 72 70 70 70 68
349 352 359 5 10 9 9 9 8 13 19 19 20 15 359 349 352 353 357 4 10 4 1 19 22 21 41 66 61 77 118 130 143 165 176 172 166 165 168 175 193 188 165 179 185 171 167 166 169 164 148 140 134 131 140 137 130 126 123 127 127 124 125 125 127 127 124 120 119 119 119 114 109 107 105 105 105 97 85 78 74 71 69 67 64
356 359 3 10 16 16 14 10 7 12 20 25 26 22 14 6 1 7 17 20 20 12 11 32 37 35 51 63 63 83 108 117 123 137 142 136 127 121 120 115 107 105 113 135 150 148 146 139 139 146 140 133 127 123 126 129 127 123 120 120 119 118 115 113 115 116 116 116 112 108 110 109 105 101 98 95 94 94 90 85 83 83 81 73 63
1 6 7 12 18 19 17 13 11 14 19 27 29 27 26 22 13 21 33 33 25 19 22 40 49 49 54 59 67 84 98 104 110 118 124 124 121 117 113 107 97 93 97 107 121 128 136 132 121 124 127 124 121 118 115 116 116 115 115 115 114 114 109 106 106 107 110 110 106 102 101 100 98 95 93 91 89 88 89 89 90 88 84 79 66
5 9 10 14 17 18 18 16 16 18 22 29 29 28 31 30 26 31 39 36 26 27 33 43 53 56 58 58 63 81 88 94 103 106 110 114 115 114 110 110 107 104 103 104 117 125 128 129 124 120 119 119 120 119 117 115 112 110 108 107 110 112 109 108 109 109 109 106 100 98 96 93 91 90 89 91 92 92 94 94 93 87 81 83 77
7 10 12 15 16 17 21 21 20 22 25 28 26 26 30 32 32 35 41 37 31 36 40 43 50 57 63 61 60 74 81 85 97 102 105 109 111 113 112 113 114 111 111 115 125 129 125 126 129 127 124 124 127 127 126 122 114 106 102 99 98 100 101 104 106 106 105 102 101 98 96 95 91 88 87 88 91 93 94 92 90 88 85 86 88
6 9 13 16 17 19 23 24 23 25 26 24 22 23 24 26 29 31 35 36 37 40 43 46 50 57 66 67 64 68 73 79 88 95 99 106 110 114 116 118 119 118 120 125 128 130 130 131 130 130 128 124 123 125 127 124 113 100 94 93 92 94 95 97 99 100 99 97 97 96 93 91 89 88 86 85 87 88 88 88 86 86 85 81 81
3 5 11 16 20 22 23 23 25 26 27 25 21 22 21 20 24 26 27 31 37 41 44 48 51 55 63 69 72 71 73 80 85 87 91 99 107 113 116 119 123 124 126 128 130 132 135 136 133 131 131 128 122 121 124 121 110 99 92 87 85 86 89 93 94 94 97 98 99 99 95 92 87 84 84 82 83 83 82 83 82 83 84 81 77
358 2 8 13 19 24 24 24 26 28 30 28 23 23 24 22 23 26 28 31 36 40 42 47 51 55 60 65 71 73 76 81 83 86 89 93 101 108 111 115 119 123 127 129 129 131 134 137 137 132 131 129 127 126 125 118 110 113 111 96 85 79 77 81 82 84 94 99 104 107 104 103 95 87 82 79 77 77 77 77 78 78 78 78 75
354 358 3 9 16 20 23 26 26 28 30 32 29 26 28 31 31 33 36 39 40 42 45 50 56 58 60 63 65 69 74 79 81 82 83 85 92 100 103 105 111 117 123 127 128 132 134 137 140 137 132 128 130 134 134 131 125 122 118 108 106 93 76 71 68 73 91 99 105 108 106 106 103 95 85 77 73 72 71 70 71 70 69 69 68
350 352 357 4 11 15 21 26 25 26 29 33 36 33 32 36 42 44 46 48 49 51 54 58 62 62 62 65 66 69 72 76 79 80 81 84 89 94 97 101 107 114 120 125 129 133 137 140 142 141 137 132 132 133 136 136 128 121 114 91 111 129 102 103 87 68 74 90 96 101 105 106 104 100 90 81 76 72 70 68 67 66 65 64 63
344 346 350 356 5 9 15 24 25 24 26 32 36 37 36 37 42 45 47 48 46 48 50 52 56 58 60 63 66 70 74 76 80 83 87 91 92 92 94 99 105 111 116 121 127 132 138 143 145 144 144 144 141 132 137 138 126 121 132 114 114 140 121 140 126 76 58 73 85 98 105 105 104 102 94 87 81 77 73 70 67 66 64 61 58
334 339 345 349 358 5 10 19 24 23 23 28 35 36 36 36 38 37 37 37 34 37 41 42 47 53 58 62 64 69 75 78 82 87 90 91 92 92 95 99 104 110 115 121 127 134 141 146 151 153 154 154 147 138 145 152 143 146 156 160 200 192 155 156 152 93 82 76 82 101 107 105 104 103 102 97 89 83 77 72 68 66 63 61 58
322 330 341 345 350 358 6 14 20 22 21 24 31 35 35 36 39 37 33 31 29 33 42 47 52 56 61 65 67 69 72 76 79 81 84 84 86 89 92 96 100 104 110 117 124 132 142 149 159 163 160 158 150 144 151 163 165 171 189 211 234 183 161 158 161 144 132 128 129 133 135 123 110 104 104 105 97 87 79 73 69 64 61 60 56
317 319 335 341 345 351 360 10 15 19 21 21 25 31 33 34 38 41 37 33 31 34 43 52 57 61 64 66 68 70 71 73 75 76 78 79 80 83 86 90 93 97 100 104 110 117 128 140 153 161 160 156 151 148 152 159 156 158 172 170 158 160 158 155 156 151 137 147 155 167 179 167 137 118 105 102 101 94 85 76 70 64 58 53 50
327 313 322 331 338 344 351 2 8 13 20 23 23 26 32 35 36 39 40 38 37 36 40 47 53 59 63 65 68 70 71 73 74 76 77 78 80 82 85 88 89 91 93 94 98 104 113 126 140 152 157 156 154 153 153 153 149 140 134 130 131 141 146 142 149 144 121 144 159 175 177 177 186 172 135 110 101 96 90 78 71 66 58 52 46
341 320 313 316 327 335 340 347 352 2 15 23 24 24 29 35 36 37 39 43 46 45 41 44 50 56 60 64 67 69 71 73 74 76 78 81 83 85 87 88 89 90 92 93 94 97 102 109 120 132 143 147 147 147 143 139 139 136 133 133 133 138 139 143 157 152 134 139 149 165 175 180 180 180 185 163 112 96 93 81 70 63 56 49 40
1 338 320 312 314 317 323 331 333 341 357 15 22 22 25 31 36 37 37 38 46 52 50 49 52 54 57 60 63 66 69 71 74 75 78 80 83 86 88 88 90 91 92 95 96 98 100 103 108 114 121 126 128 128 125 125 129 133 137 141 147 156 155 157 169 166 155 146 141 153 172 182 171 161 181 193 170 128 100 84 66 53 49 41 30